DB0SWS-6 Weather Reports


time (UTC)temp
C
wind
direction
speed
KPH
gust
KPH
rain 1hr
cm
rain 24hr
cm
rain mn
cm
humidity
%
barometer
mb
20260506050329 8 112 0.0 0.0 0.00 0.38 0.00 99 952.9
20260506043330 8 135 0.0 0.0 0.00 0.38 0.00 99 953.1
20260506040329 8 190 0.0 0.0 0.00 0.38 0.00 99 953.0
20260506030329 10 225 0.0 0.0 0.00 0.38 0.00 99 953.3
20260506010330 10 225 0.0 0.0 0.00 0.38 0.00 99 954.0
20260506003329 10 225 0.0 0.0 0.00 0.38 0.00 99 954.2
20260505233329 11 225 0.0 0.0 0.00 0.38 0.00 99 954.5
20260505230328 11 225 0.0 0.0 0.00 0.38 0.00 99 954.8
20260505223329 11 225 0.0 0.0 0.00 0.38 0.00 99 954.8
20260505220330 11 225 0.0 0.0 0.00 0.38 0.00 99 954.8
20260505213331 11 225 0.0 0.0 0.00 0.38 0.38 99 954.7
20260505210329 11 225 0.0 0.0 0.00 0.38 0.38 99 954.7
20260505203328 11 248 0.0 1.6 0.00 0.38 0.38 99 954.5
20260505200329 11 228 0.0 1.6 0.00 0.38 0.38 99 954.4
20260505190330 11 248 0.0 0.0 0.00 0.38 0.38 99 954.2
20260505183331 12 248 0.0 0.0 0.00 0.38 0.38 99 954.0
20260505180330 12 248 1.6 3.2 0.03 0.38 0.38 97 954.0
20260505173329 12 288 1.6 3.2 0.05 0.38 0.38 96 954.0
20260505170330 12 135 0.0 0.0 0.28 0.36 0.36 98 953.9
20260505163330 13 248 0.0 0.0 0.28 0.33 0.33 97 953.5
20260505160329 15 262 3.2 4.8 0.03 0.10 0.10 87 953.7
20260505153329 15 248 4.8 9.7 0.00 0.05 0.05 86 953.5
20260505150330 16 295 1.6 4.8 0.00 0.05 0.05 85 953.3
20260505140330 15 290 3.2 4.8 0.00 0.05 0.05 91 953.9
20260505123330 14 248 0.0 0.0 0.03 0.05 0.05 92 954.8
20260505120330 14 266 1.6 4.8 0.03 0.03 0.03 92 955.1
20260505110330 15 278 3.2 8.0 0.00 0.00 0.00 84 954.9
20260505093330 15 270 4.8 9.7 0.00 0.00 0.00 80 955.2
20260505090330 15 61 1.6 3.2 0.00 0.00 0.00 81 955.6
20260505083330 15 292 0.0 0.0 0.00 0.00 0.00 83 955.7
20260505080330 13 22 0.0 0.0 0.00 0.00 0.00 86 956.1